Change the Weather History Date:

Sunday, December 2, 2012

  Actual Average (KSZL) Record (KSZL)
Temperature  
Mean Temperature 55 °F -  
Max Temperature 68 °F 47 °F 98 °F (2000)
Min Temperature 42 °F 31 °F 15 °F (2006)
Degree Days  
Heating Degree Days 10    
Growing Degree Days 5 (Base 50)    
Moisture  
Dew Point 50 °F    
Average Humidity 83    
Maximum Humidity 100    
Minimum Humidity 49    
Precipitation  
Precipitation 0.00 in - - ()
Sea Level Pressure  
Sea Level Pressure 29.96 in    
Wind  
Wind Speed 5 mph (South)    
Max Wind Speed 9 mph    
Max Gust Speed -    
Visibility 9 miles    
Events Fog    
Averages and records for this station are not official NWS values.
T = Trace of Precipitation, MM = Missing Value Source: NWS Daily Summary

Daily Weather History Graph

Daily Weather History Graph

Search for Another Location

Airport or City:

Trip Planner

Search our weather history database for the weather conditions in past years. The results will help you decide how hot, cold, wet, or windy it might be!

Date:

Astronomy

Dec. 02, 2012 Rise Set
Actual Time 7:15 AM CST 4:53 PM CST
Civil Twilight 6:46 AM CST 5:23 PM CST
Nautical Twilight 6:13 AM CST 5:56 PM CST
Astronomical Twilight 5:41 AM CST 6:28 PM CST
Moon 8:40 PM CST (12/2) 10:06 AM CST (12/2)
Length of Visible Light 10h 36m
Length of Day
9h 37m
Waning Gibbous, 85% of the Moon is Illuminated
Dec 2
Waning Gibbous
Dec 6
Last Quarter
Dec 13
New
Dec 19
First Quarter
Dec 28
Full

Hourly Weather History & Observations

Time (CST) Temp. Windchill Dew Point Humidity Pressure Visibility Wind Dir Wind Speed Gust Speed Precip Events Conditions
12:15 AM 55.4 °F - 51.8 °F 88% 29.91 in 10.0 mi SW 4.6 mph - N/A   Clear
12:35 AM 53.6 °F - 51.8 °F 94% 29.91 in 10.0 mi SSW 6.9 mph - N/A   Clear
12:55 AM 53.6 °F - 51.8 °F 94% 29.91 in 10.0 mi SW 5.8 mph - N/A   Clear
1:15 AM 53.6 °F - 50.0 °F 88% 29.91 in 10.0 mi SW 6.9 mph - N/A   Clear
1:35 AM 51.8 °F - 50.0 °F 94% 29.91 in 10.0 mi SSW 5.8 mph - N/A   Clear
1:55 AM 51.8 °F - 50.0 °F 94% 29.93 in 10.0 mi SW 4.6 mph - N/A   Clear
2:15 AM 50.0 °F - 46.4 °F 87% 29.94 in 10.0 mi SW 5.8 mph - N/A   Clear
2:35 AM 50.0 °F - 46.4 °F 87% 29.94 in 10.0 mi SW 5.8 mph - N/A   Clear
2:55 AM 50.0 °F - 46.4 °F 87% 29.94 in 10.0 mi SSW 4.6 mph - N/A   Clear
3:15 AM 50.0 °F - 46.4 °F 87% 29.94 in 10.0 mi WSW 5.8 mph - N/A   Clear
3:35 AM 50.0 °F - 46.4 °F 87% 29.94 in 10.0 mi West 3.5 mph - N/A   Clear
3:55 AM 50.0 °F - 46.4 °F 87% 29.94 in 10.0 mi West 3.5 mph - N/A   Clear
4:15 AM 50.0 °F - 46.4 °F 87% 29.95 in 10.0 mi Calm Calm - N/A   Clear
4:55 AM 46.4 °F 42.9 °F 44.6 °F 93% 29.96 in 7.0 mi South 6.9 mph - N/A   Clear
5:15 AM 46.4 °F 43.5 °F 44.6 °F 93% 29.97 in 7.0 mi SSW 5.8 mph - N/A   Clear
5:35 AM 46.4 °F 45.2 °F 44.6 °F 93% 29.97 in 5.0 mi SSW 3.5 mph - N/A   Clear
5:55 AM 44.6 °F 42.2 °F 42.8 °F 93% 29.98 in 4.0 mi South 4.6 mph - N/A   Clear
6:15 AM 44.6 °F 42.2 °F 44.6 °F 100% 29.98 in 2.5 mi South 4.6 mph - N/A   Clear
6:35 AM 42.8 °F 40.1 °F 42.8 °F 100% 29.99 in 1.0 mi South 4.6 mph - N/A   Mist
6:55 AM 42.8 °F 38.6 °F 41.0 °F 93% 30.00 in 0.5 mi SSE 6.9 mph - N/A Fog Fog
7:15 AM 42.8 °F 39.3 °F 41.0 °F 93% 30.00 in 0.2 mi South 5.8 mph - N/A Fog Fog
7:55 AM 42.8 °F 41.1 °F 42.8 °F 100% 30.01 in 1.0 mi South 3.5 mph - N/A   Mist
8:15 AM 44.6 °F - 44.6 °F 100% 30.02 in 3.0 mi Calm Calm - N/A   Clear
8:35 AM 46.4 °F - 46.4 °F 100% 30.02 in 5.0 mi Calm Calm - N/A   Clear
8:55 AM 48.2 °F - 46.4 °F 93% 30.03 in 7.0 mi Calm Calm - N/A   Clear
9:15 AM 50.0 °F - 50.0 °F 100% 30.03 in 7.0 mi Calm Calm - N/A   Clear
9:35 AM 51.8 °F - 50.0 °F 94% 30.03 in 10.0 mi Calm Calm - N/A   Clear
9:55 AM 55.4 °F - 51.8 °F 88% 30.03 in 10.0 mi South 6.9 mph - N/A   Clear
10:15 AM 57.2 °F - 51.8 °F 82% 30.03 in 10.0 mi SSW 5.8 mph - N/A   Clear
10:35 AM 59.0 °F - 51.8 °F 77% 30.04 in 10.0 mi SW 5.8 mph - N/A   Clear
10:55 AM 60.8 °F - 51.8 °F 72% 30.03 in 10.0 mi SSW 5.8 mph - N/A   Clear
11:15 AM 60.8 °F - 51.8 °F 72% 30.03 in 10.0 mi SSW 6.9 mph - N/A   Clear
11:55 AM 62.6 °F - 51.8 °F 68% 30.01 in 10.0 mi SSW 5.8 mph - N/A   Clear
12:15 PM 64.4 °F - 51.8 °F 64% 30.00 in 10.0 mi SSW 9.2 mph - N/A   Clear
12:35 PM 64.4 °F - 50.0 °F 59% 30.00 in 10.0 mi SSW 6.9 mph - N/A   Clear
12:55 PM 66.2 °F - 50.0 °F 56% 29.99 in 10.0 mi SSW 4.6 mph - N/A   Clear
1:15 PM 68.0 °F - 50.0 °F 52% 29.99 in 10.0 mi South 5.8 mph - N/A   Clear
1:35 PM 68.0 °F - 50.0 °F 52% 29.98 in 10.0 mi SSW 4.6 mph - N/A   Clear
1:55 PM 68.0 °F - 50.0 °F 52% 29.98 in 10.0 mi South 5.8 mph - N/A   Clear
2:15 PM 68.0 °F - 50.0 °F 52% 29.97 in 10.0 mi South 6.9 mph - N/A   Clear
2:35 PM 68.0 °F - 48.2 °F 49% 29.96 in 10.0 mi South 8.1 mph - N/A   Clear
2:55 PM 66.2 °F - 50.0 °F 56% 29.95 in 10.0 mi SSW 4.6 mph - N/A   Clear
3:15 PM 66.2 °F - 50.0 °F 56% 29.95 in 10.0 mi SSE 4.6 mph - N/A   Clear
3:35 PM 64.4 °F - 51.8 °F 64% 29.95 in 10.0 mi SSE 3.5 mph - N/A   Clear
3:55 PM 64.4 °F - 53.6 °F 68% 29.95 in 10.0 mi SSE 4.6 mph - N/A   Clear
4:15 PM 62.6 °F - 53.6 °F 72% 29.95 in 10.0 mi SSE 3.5 mph - N/A   Clear
4:35 PM 62.6 °F - 53.6 °F 72% 29.94 in 10.0 mi SSE 3.5 mph - N/A   Clear
4:55 PM 60.8 °F - 53.6 °F 77% 29.94 in 10.0 mi SSE 4.6 mph - N/A   Clear
5:15 PM 60.8 °F - 53.6 °F 77% 29.93 in 10.0 mi SE 4.6 mph - N/A   Clear
5:35 PM 59.0 °F - 53.6 °F 82% 29.94 in 10.0 mi SE 4.6 mph - N/A   Clear
5:55 PM 59.0 °F - 53.6 °F 82% 29.93 in 10.0 mi SE 3.5 mph - N/A   Clear
6:35 PM 59.0 °F - 53.6 °F 82% 29.94 in 10.0 mi Calm Calm - N/A   Clear
7:15 PM 57.2 °F - 53.6 °F 88% 29.94 in 10.0 mi ESE 3.5 mph - N/A   Clear
7:35 PM 57.2 °F - 53.6 °F 88% 29.94 in 10.0 mi East 3.5 mph - N/A   Clear
7:55 PM 55.4 °F - 53.6 °F 94% 29.94 in 10.0 mi SE 4.6 mph - N/A   Clear
8:15 PM 55.4 °F - 53.6 °F 94% 29.93 in 10.0 mi SSE 4.6 mph - N/A   Clear
8:35 PM 55.4 °F - 53.6 °F 94% 29.93 in 7.0 mi SE 3.5 mph - N/A   Clear
8:55 PM 55.4 °F - 53.6 °F 94% 29.92 in 7.0 mi SE 4.6 mph - N/A   Clear
9:15 PM 53.6 °F - 51.8 °F 94% 29.92 in 5.0 mi SE 5.8 mph - N/A   Clear
9:35 PM 53.6 °F - 51.8 °F 94% 29.92 in 10.0 mi SE 4.6 mph - N/A   Clear
9:55 PM 53.6 °F - 51.8 °F 94% 29.91 in 10.0 mi SE 4.6 mph - N/A   Clear
10:15 PM 53.6 °F - 51.8 °F 94% 29.91 in 10.0 mi ESE 3.5 mph - N/A   Clear
10:55 PM 53.6 °F - 51.8 °F 94% 29.90 in 10.0 mi ESE 4.6 mph - N/A   Overcast
11:15 PM 53.6 °F - 51.8 °F 94% 29.90 in 10.0 mi SE 6.9 mph - N/A   Scattered Clouds
11:35 PM 55.4 °F - 53.6 °F 94% 29.90 in 10.0 mi SSE 8.1 mph - N/A   Clear
11:55 PM 57.2 °F - 53.6 °F 88% 29.90 in 10.0 mi SSE 9.2 mph - N/A   Clear